Location: Valencia
(39.4696°N, 0.3770°W)
Time: 22:52:35
(UTC+02:00)

ISS - Visible Passes

Search period start: 23 July 2017 00:00
Search period end: 02 August 2017 00:00
Orbit: 400 x 408 km, 51.6° (Epoch: 24 July)

Date Brightness Start Highest point End Pass type
(mag) Time Alt. Az. Time Alt. Az. Time Alt. Az.
23 Jul -1.8 00:13:02 10° W 00:15:55 29° NNW 00:18:50 10° NE visible
23 Jul -0.3 01:52:15 10° NNW 01:53:14 11° N 01:54:13 10° N visible
23 Jul -0.3 03:29:37 10° NNW 03:30:53 12° NNE 03:32:10 10° NE visible
23 Jul -2.1 05:05:04 10° NW 05:08:07 35° NNE 05:11:09 10° E visible
23 Jul -2.9 23:20:23 10° WSW 23:23:32 49° NW 23:26:43 10° NE visible
24 Jul -0.5 00:58:56 10° NW 01:00:38 13° NNW 01:02:19 10° NNE visible
24 Jul -0.1 02:37:46 10° N 02:38:15 10° N 02:38:44 10° NNE visible
24 Jul -1.3 04:13:01 10° NNW 04:15:40 22° NNE 04:18:21 10° E visible
24 Jul -3.7 05:49:09 10° WNW 05:52:19 48° SW 05:55:28 10° SSE visible
24 Jul -4.0 22:27:59 10° SW 22:31:13 84° SE 22:34:29 10° NE visible
25 Jul -0.8 00:05:46 10° WNW 00:08:03 17° NNW 00:10:21 10° NNE visible
25 Jul -0.7 03:21:00 10° NNW 03:23:09 16° NNE 03:25:18 10° ENE visible
25 Jul -3.8 04:56:47 10° NW 05:00:03 81° NE 05:03:19 10° SE visible
25 Jul -1.4 23:12:47 10° W 23:15:32 25° NNW 23:18:18 10° NNE visible
26 Jul -0.3 00:52:12 10° NNW 00:52:55 10° N 00:53:37 10° N visible
26 Jul -0.3 02:29:02 10° NNW 02:29:16 11° N 02:29:16 11° N visible
26 Jul -1.5 05:46:11 11° S 05:46:11 11° S 05:46:22 10° S visible
26 Jul -2.4 22:20:00 10° WSW 22:23:05 40° NNW 22:26:11 10° NE visible
26 Jul -0.5 23:58:48 10° NW 00:00:14 12° NNW 00:01:42 10° NNE visible
27 Jul -0.3 01:37:06 10° N 01:37:53 11° N 01:37:56 11° N visible
27 Jul -0.7 23:05:32 10° WNW 23:07:37 16° NNW 23:09:43 10° NNE visible
28 Jul -1.1 22:12:25 10° WNW 22:15:02 22° NNW 22:17:39 10° NNE visible
28 Jul -0.3 23:52:06 10° NNW 23:52:29 10° N 23:52:51 10° N visible
29 Jul -0.3 01:28:21 10° NNW 01:28:42 11° N 01:28:42 11° N visible
29 Jul -0.6 22:58:33 10° NNW 22:59:45 12° N 23:00:58 10° N visible
30 Jul -0.6 00:36:22 10° N 00:37:24 11° N 00:37:54 11° NNE visible
30 Jul -0.8 22:05:12 10° NW 22:07:04 14° NNW 22:08:58 10° NNE visible
31 Jul -0.2 01:19:38 10° NNW 01:19:44 10° NNW 01:19:44 10° NNW visible
01 Aug -0.8 00:27:33 10° NNW 00:28:58 14° N 00:28:58 14° N visible
01 Aug -0.7 21:58:12 10° NNW 21:59:10 11° N 22:00:07 10° N visible
01 Aug -0.9 23:35:31 10° NNW 23:36:48 12° NNE 23:38:06 10° NE visible
